Weather Roundup
Issued by NWS Chicago, IL

Home | Current Version | Previous Version | Text Only | Print | Product List | Glossary Off
Versions: 1 2 3 4 5 6 7 8 9 10 11 12 13 14 15 16 17 18 19 20 21 22 23 24 25 26 27 28 29 30 31 32 33 34 35 36 37 38 39 40 41 42 43 44 45 46 47 48 49 50

666
NZUS59 KLOT 111308
HRRLOT

CHICAGO AREA WEATHER ROUNDUP
NATIONAL WEATHER SERVICE CHICAGO/ROMEOVILLE IL
700 AM CST MON DEC 11 2017

NOTE: "FAIR" INDICATES FEW OR NO CLOUDS BELOW 12,000 FEET WITH NO
SIGNIFICANT WEATHER AND/OR OBSTRUCTIONS TO VISIBILITY.

* THESE STATIONS ARE NOT UNDER NWS QUALITY CONTROL. THEY ALSO MAY NOT
  REPORT WEATHER SUCH AS PRECIPITATION OR FOG.

ILZ005-006-012>014-019>023-111400-
NORTHEAST ILLINOIS

CITY           SKY/WX    TMP DP  RH WIND       PRES   REMARKS
OHARE          CLOUDY    28  20  71 S7        29.96S WCI  21
MIDWAY         CLOUDY    29  21  72 S9        29.97F WCI  20
AURORA         CLOUDY    26  22  84 S7        29.96F WCI  18
LANSING*       CLOUDY    27  23  84 S8        29.98F WCI  19
WAUKEGAN       CLOUDY    26  22  84 S8        29.94F FOG     WCI  18
DUPAGE AIRPORT CLOUDY    25  22  88 S8        29.95S WCI  16
WHEELING       CLOUDY    29  22  75 S10       29.98S WCI  20
KANKAKEE*      MOCLDY    26  22  82 S8        30.00F WCI  18
MORRIS*        MOCLDY    26  22  83 S6        29.97S WCI  20
LEWIS AIRPORT* CLOUDY    26  23  86 S6        29.98S WCI  20
NORTHERLY ISL    N/A     28  19  69 S6          N/A  WCI  22
$$

WIZ051-052-058>065-066-070>072-111400-
SOUTHEAST WISCONSIN

CITY           SKY/WX    TMP DP  RH WIND       PRES   REMARKS
MILWAUKEE      LGT SNOW  25  22  88 S7        29.93F WCI  17
KENOSHA*       LGT SNOW  25  21  85 S7        29.94F FOG     WCI  17
RACINE*        LGT SNOW  24  22  91 S7        29.95F FOG     WCI  16
BURLINGTON     CLOUDY    32  32 100 S3        29.92F
WAUKESHA       LGT SNOW  21  19  93 S6        29.92F WCI  14
WEST BEND      LGT SNOW  23  21  93 S6        29.90F WCI  16
$$

INZ001>003-010>013-019-020-111400-
NORTHWEST INDIANA

CITY           SKY/WX    TMP DP  RH WIND       PRES   REMARKS
GARY*          CLOUDY    28  19  69 S10       29.99F WCI  19
MICHIGAN CITY* NOT AVBL
RENSSELAER*    NOT AVBL
VALPARAISO     CLOUDY    28  21  75 S8        29.98F WCI  20
$$

LMZ740>746-111400-
SOUTHERN LAKE MICHIGAN

STATION/POSITION TIME  SKY/WX   TEMP WIND        PRES    VSBY
                                AIR  DIR/SP/G
                 (UTC)          (F)  (DEG/KT/KT) (MB)    (MI)
HARRISON CRIB    1240            30  190/ 18/ 19   N/A
BURNHAM HARBOR   1300            28  170/  6/ 12   N/A
CALUMET HARBOR   1248            28  170/  9/ 14 1014.5F
BURNS HARBOR     1240            28  180/ 10/ 15 1015.6F
MICHIGAN CITY    1240            28  160/  6/  9   N/A
$$

ABBREVIATIONS USED IN REMARKS
   TC - TEMPERATURE IN CELSIUS
  WCI - WIND CHILL INDEX
   HX - HEAT INDEX
  VSB - VISIBILITY
$$




USA.gov is the U.S. government's official web portal to all federal, state and local government web resources and services.